Weather History for KAFW - October, 2013

Change the Weather History Date:

Friday, October 4, 2013

  Actual Average Record
Temperature  
Mean Temperature 80 °F -  
Max Temperature 89 °F 79 °F - (-1)
Min Temperature 72 °F 57 °F - (-1)
Cooling Degree Days 14    
Growing Degree Days 30 (Base 50)    
Moisture  
Dew Point 67 °F    
Average Humidity 67    
Maximum Humidity 87    
Minimum Humidity 48    
Precipitation  
Precipitation 0.00 in - - ()
Sea Level Pressure  
Sea Level Pressure 29.83 in    
Wind  
Wind Speed 13 mph (South)    
Max Wind Speed 18 mph    
Max Gust Speed 24 mph    
Visibility 10 miles    
Events      
Averages and records for this station are not official NWS values.
T = Trace of Precipitation, MM = Missing Value Source: NWS Daily Summary

Daily Weather History Graph

Daily Weather History Graph

Search for Another Location

Airport or City:

Trip Planner

Search our weather history database for the weather conditions in past years. The results will help you decide how hot, cold, wet, or windy it might be!

Date:

Astronomy

Oct. 04, 2013 Rise Set
Actual Time 7:25 AM CDT 7:09 PM CDT
Civil Twilight 7:01 AM CDT 7:34 PM CDT
Nautical Twilight 6:32 AM CDT 8:02 PM CDT
Astronomical Twilight 6:03 AM CDT 8:31 PM CDT
Moon 7:01 AM CDT (10/4) 6:54 PM CDT (10/4)
Length of Visible Light 12h 33m
Length of Day
11h 43m
Waning Crescent, 0% of the Moon is Illuminated
Oct 4
Waning Crescent
Oct 4
New
Oct 11
First Quarter
Oct 18
Full
Oct 26
Last Quarter

Hourly Weather History & Observations

Time (CDT) Temp. Heat Index Dew Point Humidity Pressure Visibility Wind Dir Wind Speed Gust Speed Precip Events Conditions
12:53 AM 77.0 °F - 69.1 °F 76% 29.80 in 10.0 mi South 16.1 mph 23.0 mph N/A   Clear
1:53 AM 75.9 °F - 70.0 °F 82% 29.81 in 10.0 mi SSE 12.7 mph - N/A   Clear
2:53 AM 75.0 °F - 70.0 °F 84% 29.81 in 10.0 mi SSE 10.4 mph - N/A   Clear
3:53 AM 75.0 °F - 69.1 °F 82% 29.81 in 10.0 mi SSE 12.7 mph 21.9 mph N/A   Clear
4:53 AM 73.9 °F - 69.1 °F 85% 29.82 in 10.0 mi SSE 12.7 mph 19.6 mph N/A   Clear
5:53 AM 73.0 °F - 68.0 °F 84% 29.82 in 10.0 mi SSE 12.7 mph - N/A   Clear
6:53 AM 72.0 °F - 68.0 °F 87% 29.83 in 10.0 mi South 13.8 mph - N/A   Partly Cloudy
7:53 AM 72.0 °F - 68.0 °F 87% 29.85 in 10.0 mi South 9.2 mph - N/A   Scattered Clouds
8:13 AM 73.4 °F - 68.0 °F 83% 29.90 in 10.0 mi South 8.1 mph - N/A   Mostly Cloudy
8:53 AM 75.0 °F - 69.1 °F 82% 29.87 in 10.0 mi South 10.4 mph - N/A   Mostly Cloudy
9:48 AM 78.8 °F - 68.0 °F 69% 29.91 in 10.0 mi South 12.7 mph 19.6 mph N/A   Scattered Clouds
9:53 AM 79.0 °F - 68.0 °F 69% 29.87 in 10.0 mi South 13.8 mph 19.6 mph N/A   Scattered Clouds
10:19 AM 78.8 °F - 68.0 °F 69% 29.91 in 10.0 mi South 8.1 mph 19.6 mph N/A   Mostly Cloudy
10:53 AM 81.0 °F 83.3 °F 66.9 °F 62% 29.87 in 10.0 mi SSW 11.5 mph 23.0 mph N/A   Mostly Cloudy
11:15 AM 80.6 °F 82.7 °F 66.2 °F 61% 29.91 in 10.0 mi South 13.8 mph 21.9 mph N/A   Mostly Cloudy
11:53 AM 82.9 °F 85.4 °F 66.9 °F 58% 29.86 in 10.0 mi South 11.5 mph 17.3 mph N/A   Scattered Clouds
12:53 PM 84.0 °F 86.3 °F 66.0 °F 55% 29.85 in 10.0 mi South 9.2 mph 20.7 mph N/A   Mostly Cloudy
1:53 PM 86.0 °F 88.2 °F 66.0 °F 51% 29.81 in 10.0 mi South 11.5 mph 19.6 mph N/A   Scattered Clouds
2:53 PM 87.1 °F 89.2 °F 66.0 °F 49% 29.80 in 10.0 mi South 13.8 mph 20.7 mph N/A   Mostly Cloudy
3:53 PM 87.1 °F 88.9 °F 64.9 °F 48% 29.78 in 10.0 mi South 12.7 mph 23.0 mph N/A   Mostly Cloudy
4:53 PM 87.1 °F 89.2 °F 66.0 °F 49% 29.78 in 10.0 mi South 11.5 mph 23.0 mph N/A   Partly Cloudy
5:53 PM 87.1 °F 88.9 °F 64.9 °F 48% 29.77 in 10.0 mi SSE 18.4 mph 24.2 mph N/A   Partly Cloudy
6:53 PM 84.9 °F 86.6 °F 64.9 °F 51% 29.78 in 10.0 mi SSE 13.8 mph 23.0 mph N/A   Partly Cloudy
7:53 PM 82.9 °F 85.0 °F 66.0 °F 56% 29.78 in 10.0 mi SSE 11.5 mph - N/A   Clear
8:53 PM 82.0 °F 84.1 °F 66.0 °F 58% 29.78 in 10.0 mi SSE 13.8 mph 24.2 mph N/A   Clear
9:53 PM 81.0 °F 83.0 °F 66.0 °F 60% 29.80 in 10.0 mi SSE 12.7 mph 20.7 mph N/A   Clear
10:53 PM 80.1 °F 82.1 °F 66.0 °F 62% 29.81 in 10.0 mi South 15.0 mph 20.7 mph N/A   Clear
11:53 PM 79.0 °F - 66.0 °F 64% 29.81 in 10.0 mi SSE 12.7 mph - N/A   Clear